Location: Hylvaty SDH
(49.9612°N, 16.4057°E)
Time: 12:12:51
(UTC+01:00)

Tiros 1 - Pass Details

Date: 09 October 2020
Orbit: 630 x 663 km, 48.4° (Epoch: 28 October)

Event Time Altitude Azimuth Distance (km) Brightness Sun altitude
Rises 14:55:11 0° 273° (W) 2,943 11.0 26.5°
Reaches altitude 10° 14:57:31 10° 271° (W) 2,039 10.3 26.3°
Maximum altitude 15:02:11 71° 188° (S) 689 8.1 25.8°
Drops below altitude 10° 15:06:55 10° 105° (ESE) 2,058 9.6 25.3°
Sets 15:09:16 0° 103° (ESE) 2,974 10.3 25.0°
